[[{"header":{"parameterUnit":"m.s-1","parameterCategory":1,"la1":30.2991,"la2":30.254,"lo1":-89.0895,"lo2":-89.0444,"dy":0.0017,"dx":0.0017,"nx":28,"ny":28,"refTime":"2025-05-21T09:00:00:Z","depth":0,"parameterNumber":2,"parameterNumberName":"U-component_of_WINDS"},"data":[0,0,0,0,0,0,0,0,0,0,0,0,0,0,0,0,0,0,0,0,0,0,0,0,0,0,0,0,0,0,0,0,0,0,0,0,0,0,0,0,0,0,0,0,0,0,0,0,0,0,0,0,0,0,0,0,0,0,-1.3741,-1.3742,0,-1.3844,-1.3845,-1.3846,-1.3905,-1.3905,-1.3905,-1.3905,-1.4013,-1.4015,-1.4018,0,0,0,0,0,0,0,0,0,0,0,0,0,-1.3598,-1.36,-1.3741,-1.3742,-1.3744,-1.3844,-1.3845,-1.3847,-1.3905,-1.3905,-1.3905,-1.3906,-1.4012,-1.4015,-1.4018,0,0,0,0,0,0,0,0,0,0,0,0,0,-1.3676,-1.3601,-1.3741,-1.3785,-1.379,-1.3844,-1.3845,-1.3847,-1.3905,-1.3905,-1.3905,-1.3906,-1.4011,-1.4015,-1.4019,-1.4038,0,0,-1.4031,-1.4033,0,0,0,0,0,0,0,0,-1.3672,-1.3681,-1.3777,-1.3782,-1.3787,-1.3862,-1.3834,-1.3911,-1.3905,-1.3861,-1.3905,-1.3906,-1.3962,-1.397,-1.3989,-1.4043,-1.4047,-1.4031,-1.4034,-1.4035,-1.4037,0,0,0,0,0,0,0,-1.3666,-1.3677,-1.3782,-1.3778,-1.3785,-1.38,-1.3812,-1.3849,-1.3909,-1.3865,-1.3869,-1.3881,-1.3965,-1.3985,-1.3992,-1.4049,-1.4031,-1.4035,-1.4037,-1.4039,-1.4124,-1.4124,0,0,0,0,0,0,-1.3653,-1.3672,-1.3779,-1.3785,-1.3729,-1.3802,-1.3815,-1.3838,-1.3909,-1.392,-1.388,-1.3883,-1.3978,-1.3987,-1.3996,-1.4023,-1.4035,-1.4039,-1.4042,-1.4124,-1.4124,-1.4124,0,0,0,0,0,0,-1.365,-1.3662,-1.3775,-1.373,-1.3745,-1.3805,-1.3829,-1.384,-1.3859,-1.392,-1.3932,-1.3889,-1.3979,-1.3991,-1.4027,-1.4028,-1.4041,-1.4045,-1.4124,-1.4124,-1.4124,-1.4077,0,0,0,0,0,0,-1.3646,-1.3661,-1.3668,-1.373,-1.3748,-1.3802,-1.3829,-1.3841,-1.3866,-1.387,-1.3932,-1.3942,-1.398,-1.4021,-1.4031,-1.4033,-1.4048,-1.4125,-1.4124,-1.4124,-1.4079,-1.4075,-1.4072,0,0,0,0,0,-1.364,-1.3651,-1.3668,-1.368,-1.3757,-1.3802,-1.3813,-1.3855,-1.3866,-1.3874,-1.3913,-1.394,-1.4026,-1.4024,-1.4036,-1.404,-1.4125,-1.4124,-1.4124,-1.408,-1.4076,-1.4072,0,0,0,0,0,0,-1.3588,-1.3659,-1.3679,-1.371,-1.3749,-1.3812,-1.3823,-1.3849,-1.3887,-1.389,-1.3942,-1.3956,-1.3987,-1.4017,-1.4013,-1.4062,-1.4079,-1.4081,-1.4041,-1.4037,-1.4034,-1.4026,-1.4051,0,0,0,0,0,-1.3579,-1.3609,-1.3671,-1.3692,-1.3711,-1.3763,-1.3785,-1.3814,-1.3858,-1.3875,-1.3917,-1.3959,-1.3995,-1.4018,-1.4055,-1.4084,-1.4098,-1.4093,-1.4089,-1.4086,-1.4087,-1.4105,-1.4104,-1.4123,-1.4123,-1.4123,0,0,-1.3563,-1.3606,-1.3622,-1.3682,-1.3717,-1.3747,-1.3777,-1.3808,-1.3831,-1.388,-1.3916,-1.3949,-1.3999,-1.4032,-1.4048,-1.4058,-1.4085,-1.4086,-1.4083,-1.4086,-1.4105,-1.4103,-1.4101,-1.4123,-1.4123,-1.4123,0,0,-1.3548,-1.3584,-1.3605,-1.3639,-1.369,-1.3726,-1.3731,-1.379,-1.3813,-1.3851,-1.3888,-1.3917,-1.3979,-1.4013,-1.4039,-1.4039,-1.4065,-1.405,-1.4032,-1.4049,-1.4048,-1.4046,-1.4047,-1.4046,-1.405,-1.405,-1.405,0,-1.3521,-1.3568,-1.3613,-1.3642,-1.3668,-1.3713,-1.3736,-1.3767,-1.3827,-1.3845,-1.3855,-1.3934,-1.3971,-1.4012,-1.4012,-1.4032,-1.404,-1.4042,-1.4044,-1.4043,-1.4043,-1.4044,-1.4044,-1.4048,-1.4048,-1.4049,-1.4049,0,-1.3532,-1.3564,-1.3575,-1.3632,-1.366,-1.3685,-1.3735,-1.3758,-1.3786,-1.382,-1.3859,-1.3905,-1.3952,-1.3965,-1.3992,-1.4011,-1.4015,-1.4034,-1.4051,-1.4038,-1.404,-1.404,-1.4045,-1.4046,-1.4046,-1.4047,0,0,-1.3486,-1.3568,-1.3572,-1.3598,-1.3659,-1.3685,-1.3713,-1.3759,-1.3777,-1.3819,-1.3844,-1.3896,-1.3914,-1.3943,-1.3975,-1.399,-1.3987,-1.4008,-1.401,-1.4002,-1.4011,-1.3996,-1.3995,-1.4006,-1.4006,-1.4006,-1.4007,0,-1.3479,-1.3531,-1.3573,-1.3609,-1.3639,-1.3684,-1.3709,-1.3749,-1.3782,-1.3814,-1.3852,-1.3887,-1.3909,-1.3927,-1.3943,-1.3984,-1.399,-1.3985,-1.4031,-1.4032,-1.4015,-1.3996,-1.398,-1.3978,-1.4008,-1.4008,-1.4008,0,-1.3478,-1.3517,-1.3555,-1.3614,-1.3628,-1.3649,-1.3695,-1.3725,-1.3772,-1.3796,-1.3829,-1.3862,-1.3895,-1.391,-1.3957,-1.3952,-1.3974,-1.3997,-1.3998,-1.4003,-1.4018,-1.4,-1.3979,-1.3978,-1.4009,-1.4009,-1.4009,0,-1.3439,-1.3502,-1.3533,-1.3555,-1.3624,-1.3638,-1.3667,-1.3715,-1.374,-1.3781,-1.3798,-1.3843,-1.3867,-1.3901,-1.3946,-1.3953,-1.3989,-1.4007,-1.4009,-1.4008,-1.4014,-1.4013,-1.3995,-1.4029,-1.4029,-1.4029,-1.4029,0,-1.3427,-1.3449,-1.3517,-1.3536,-1.3562,-1.3612,-1.3637,-1.367,-1.3713,-1.374,-1.3782,-1.3807,-1.3866,-1.3898,-1.3934,-1.3968,-1.3979,-1.3999,-1.4008,-1.3995,-1.3992,-1.4009,-1.401,-1.4029,-1.4029,-1.4029,-1.4029,0,-1.3387,-1.3434,-1.3471,-1.3533,-1.355,-1.3566,-1.362,-1.3641,-1.3678,-1.3712,-1.3723,-1.3781,-1.3821,-1.387,-1.3927,-1.3951,-1.3982,-1.3996,-1.3965,-1.397,-1.397,-1.3969,-1.3961,-1.3963,-1.3996,-1.3996,-1.3995,0,-1.3376,-1.3394,-1.3458,-1.3479,-1.3507,-1.3541,-1.3567,-1.3617,-1.3642,-1.3699,-1.3713,-1.3757,-1.3794,-1.3858,-1.3905,-1.3949,-1.3965,-1.3959,-1.3971,-1.3958,-1.3964,-1.3962,-1.3964,-1.3955,-1.3954,-1.3954,-1.3954,0,-1.335,-1.3372,-1.3408,-1.3451,-1.3481,-1.3518,-1.3557,-1.3572,-1.3631,-1.3658,-1.3699,-1.3728,-1.3787,-1.383,-1.388,-1.3912,-1.3943,-1.395,-1.3953,-1.3938,-1.392,-1.393,-1.3955,-1.3949,-1.395,-1.395,-1.395,-1.395,-1.3324,-1.3342,-1.339,-1.3429,-1.3463,-1.3499,-1.3522,-1.3561,-1.3597,-1.3647,-1.3676,-1.3717,-1.3766,-1.3837,-1.3868,-1.3902,-1.3912,-1.3917,-1.3918,-1.3917,-1.3913,-1.3915,-1.3911,-1.3911,-1.3912,-1.3912,-1.3912,0,-1.33,-1.3333,-1.3368,-1.3421,-1.3452,-1.3478,-1.3523,-1.3547,-1.3582,-1.3625,-1.3661,-1.371,-1.3753,-1.3804,-1.3851,-1.3868,-1.3883,-1.3879,-1.3877,-1.3884,-1.3901,-1.3894,-1.3865,-1.3865,-1.3865,-1.3865,-1.3865,-1.3865,-1.329,-1.3322,-1.3351,-1.3401,-1.3435,-1.3475,-1.3499,-1.3532,-1.3567,-1.3619,-1.3655,-1.3688,-1.3735,-1.3785,-1.3826,-1.3841,-1.3856,-1.3846,-1.3865,-1.3879,-1.3883,-1.3887,-1.388,-1.3849,-1.3849,-1.3845,-1.3845,-1.3845]},{"header":{"parameterUnit":"m.s-1","parameterCategory":1,"la1":30.2991,"la2":30.254,"lo1":-89.0895,"lo2":-89.0444,"dy":0.0017,"dx":0.0017,"nx":28,"ny":28,"refTime":"2025-05-21T09:00:00:Z","depth":0,"parameterNumber":3,"parameterNumberName":"V-component_of_WINDS"},"data":[0,0,0,0,0,0,0,0,0,0,0,0,0,0,0,0,0,0,0,0,0,0,0,0,0,0,0,0,0,0,0,0,0,0,0,0,0,0,0,0,0,0,0,0,0,0,0,0,0,0,0,0,0,0,0,0,0,0,-0.601,-0.601,0,-0.6032,-0.6032,-0.6032,-0.6056,-0.6056,-0.6056,-0.6057,-0.6077,-0.6077,-0.6078,0,0,0,0,0,0,0,0,0,0,0,0,0,-0.5985,-0.5986,-0.601,-0.601,-0.601,-0.6032,-0.6032,-0.6033,-0.6056,-0.6056,-0.6056,-0.6057,-0.6077,-0.6077,-0.6078,0,0,0,0,0,0,0,0,0,0,0,0,0,-0.6001,-0.5986,-0.601,-0.6025,-0.6026,-0.6032,-0.6032,-0.6033,-0.6056,-0.6056,-0.6057,-0.6057,-0.6077,-0.6077,-0.6078,-0.607,0,0,-0.6079,-0.6079,0,0,0,0,0,0,0,0,-0.6,-0.6001,-0.6022,-0.6023,-0.6025,-0.6042,-0.6031,-0.6045,-0.6055,-0.6044,-0.6057,-0.6057,-0.6065,-0.6066,-0.6069,-0.6071,-0.6072,-0.6079,-0.6079,-0.6079,-0.6079,0,0,0,0,0,0,0,-0.5999,-0.6001,-0.6018,-0.6022,-0.6024,-0.6029,-0.6032,-0.6034,-0.6051,-0.6045,-0.6047,-0.6049,-0.6066,-0.6069,-0.607,-0.6072,-0.6079,-0.6079,-0.6079,-0.608,-0.6069,-0.6068,0,0,0,0,0,0,-0.5996,-0.6,-0.6018,-0.6019,-0.6013,-0.6029,-0.6032,-0.6036,-0.6052,-0.6054,-0.6049,-0.605,-0.6068,-0.6069,-0.6071,-0.6063,-0.6079,-0.608,-0.608,-0.6069,-0.6069,-0.6068,0,0,0,0,0,0,-0.5995,-0.5997,-0.6017,-0.601,-0.6013,-0.6029,-0.6033,-0.6036,-0.6039,-0.6054,-0.6057,-0.6049,-0.6068,-0.607,-0.607,-0.6064,-0.608,-0.608,-0.607,-0.6069,-0.6069,-0.6047,0,0,0,0,0,0,-0.5994,-0.5997,-0.5994,-0.601,-0.6013,-0.6017,-0.6033,-0.6036,-0.604,-0.6042,-0.6055,-0.6058,-0.6069,-0.607,-0.6071,-0.6065,-0.608,-0.6071,-0.607,-0.6069,-0.6048,-0.6046,-0.6043,0,0,0,0,0,-0.5993,-0.5987,-0.5994,-0.5996,-0.6011,-0.6016,-0.6018,-0.6032,-0.6039,-0.6037,-0.6047,-0.6057,-0.6064,-0.6069,-0.6071,-0.6065,-0.6071,-0.607,-0.6069,-0.6049,-0.6046,-0.6043,0,0,0,0,0,0,-0.597,-0.5989,-0.5997,-0.5996,-0.6004,-0.602,-0.6017,-0.6028,-0.6033,-0.6035,-0.6051,-0.6054,-0.6052,-0.6058,-0.6064,-0.6058,-0.6069,-0.6068,-0.6054,-0.6051,-0.6049,-0.6047,-0.6081,0,0,0,0,0,-0.5964,-0.5968,-0.5985,-0.5982,-0.5986,-0.6001,-0.6004,-0.6013,-0.6022,-0.6026,-0.6036,-0.6043,-0.6047,-0.605,-0.6054,-0.6049,-0.6052,-0.6046,-0.6043,-0.6041,-0.604,-0.6038,-0.6035,-0.6065,-0.6065,-0.6065,0,0,-0.5953,-0.5965,-0.5966,-0.5977,-0.5985,-0.5988,-0.6004,-0.6006,-0.6008,-0.6026,-0.6027,-0.6034,-0.6044,-0.6041,-0.6041,-0.6047,-0.6033,-0.604,-0.6038,-0.6038,-0.6037,-0.6034,-0.6031,-0.6064,-0.6064,-0.6064,0,0,-0.5935,-0.5944,-0.5942,-0.595,-0.5961,-0.5972,-0.5971,-0.5986,-0.5991,-0.5993,-0.6006,-0.6009,-0.6015,-0.6022,-0.6026,-0.6009,-0.6019,-0.601,-0.5997,-0.5995,-0.5992,-0.599,-0.5984,-0.5982,-0.6009,-0.6009,-0.6009,0,-0.5919,-0.5925,-0.594,-0.5942,-0.5946,-0.5964,-0.5962,-0.5968,-0.598,-0.5983,-0.5989,-0.5998,-0.6006,-0.6005,-0.6001,-0.6004,-0.6004,-0.6009,-0.5992,-0.599,-0.5988,-0.5983,-0.598,-0.6008,-0.6008,-0.6008,-0.6008,0,-0.5905,-0.5909,-0.5906,-0.5918,-0.5922,-0.5922,-0.5937,-0.5939,-0.5949,-0.5958,-0.5959,-0.5969,-0.5975,-0.5976,-0.5985,-0.5977,-0.598,-0.5989,-0.6,-0.5984,-0.5979,-0.5977,-0.6006,-0.6007,-0.6007,-0.6007,0,0,-0.5872,-0.5893,-0.5892,-0.5898,-0.5912,-0.5914,-0.5915,-0.5922,-0.5924,-0.5931,-0.5932,-0.5937,-0.5946,-0.595,-0.596,-0.5958,-0.5944,-0.5967,-0.5967,-0.5962,-0.5935,-0.5928,-0.5926,-0.5951,-0.5951,-0.595,-0.5934,0,-0.5856,-0.5859,-0.5873,-0.5871,-0.5874,-0.5891,-0.5891,-0.5899,-0.5908,-0.5911,-0.5921,-0.5924,-0.5935,-0.5938,-0.5937,-0.5946,-0.5939,-0.5947,-0.5951,-0.5951,-0.5948,-0.5923,-0.5916,-0.5901,-0.5933,-0.5932,-0.5932,0,-0.5837,-0.5845,-0.5844,-0.5858,-0.586,-0.586,-0.5868,-0.5871,-0.588,-0.5887,-0.5892,-0.5903,-0.5904,-0.5915,-0.5916,-0.5921,-0.5923,-0.5928,-0.5928,-0.5929,-0.594,-0.5923,-0.5896,-0.5894,-0.5929,-0.5929,-0.593,0,-0.5813,-0.5823,-0.5823,-0.5828,-0.5844,-0.5844,-0.5851,-0.5861,-0.5865,-0.5871,-0.5873,-0.588,-0.5883,-0.5887,-0.59,-0.5906,-0.5899,-0.5911,-0.5904,-0.5904,-0.5902,-0.5901,-0.5874,-0.5903,-0.5903,-0.5903,-0.5903,0,-0.5794,-0.5792,-0.5813,-0.5813,-0.5812,-0.5828,-0.5826,-0.5834,-0.5843,-0.5845,-0.5859,-0.586,-0.5877,-0.5879,-0.5889,-0.5888,-0.5889,-0.5894,-0.5897,-0.5893,-0.5892,-0.5894,-0.5896,-0.5903,-0.5903,-0.5903,-0.5903,0,-0.5766,-0.578,-0.5782,-0.5798,-0.5802,-0.58,-0.5813,-0.5814,-0.5824,-0.5825,-0.5827,-0.5842,-0.5846,-0.5858,-0.5865,-0.5872,-0.5868,-0.5873,-0.5865,-0.5867,-0.5859,-0.5859,-0.5832,-0.5829,-0.586,-0.5859,-0.5859,0,-0.5753,-0.5752,-0.5768,-0.5771,-0.5777,-0.5781,-0.5785,-0.58,-0.5804,-0.5815,-0.5814,-0.5819,-0.5824,-0.583,-0.5841,-0.5846,-0.5851,-0.5841,-0.5852,-0.5848,-0.5851,-0.5851,-0.585,-0.5839,-0.5838,-0.5838,-0.5838,0,-0.5727,-0.5735,-0.574,-0.5748,-0.5752,-0.5759,-0.5766,-0.5767,-0.5784,-0.5787,-0.5792,-0.5796,-0.5804,-0.5809,-0.5816,-0.5822,-0.5832,-0.5834,-0.5833,-0.5829,-0.5824,-0.5827,-0.5859,-0.5835,-0.5835,-0.5835,-0.5835,-0.5835,-0.5707,-0.5707,-0.5718,-0.5724,-0.5731,-0.5738,-0.5739,-0.5749,-0.5754,-0.5762,-0.577,-0.5774,-0.5783,-0.5794,-0.58,-0.5802,-0.5808,-0.5806,-0.5805,-0.5805,-0.5803,-0.5824,-0.5803,-0.5804,-0.5804,-0.5804,-0.5804,0,-0.5682,-0.569,-0.5695,-0.5706,-0.571,-0.572,-0.5729,-0.5731,-0.5735,-0.5743,-0.5748,-0.5753,-0.5758,-0.5769,-0.5775,-0.5775,-0.578,-0.5776,-0.5776,-0.5777,-0.5797,-0.5798,-0.5772,-0.5772,-0.5772,-0.5772,-0.5772,-0.5772,-0.567,-0.5671,-0.5679,-0.5684,-0.5692,-0.5696,-0.57,-0.5706,-0.5713,-0.5718,-0.5723,-0.573,-0.574,-0.5746,-0.5751,-0.5754,-0.5756,-0.575,-0.5755,-0.5773,-0.5776,-0.5779,-0.578,-0.575,-0.575,-0.5735,-0.5734,-0.5734]}]]